星链-37291(STARLINK-37291)

导读

STARLINK-37291(NORAD编号68560)是美国太空探索技术公司(SpaceX)星链(Starlink)星座中的一颗卫星,属于第二代星链卫星,是SpaceX批量发射的组网卫星之一,主要为全球提供低延迟、高速率的宽带互联网服务。作为Starlink大规模卫星互联网组网的组成部分,该卫星运行在近地轨道,承担网络节点功能,支撑星座覆盖范围与服务能力的扩展,目前在轨正常运行,是星链星座持续扩容过程中的在轨单元。

基本信息
目录编号:
68560
目录名称:
STARLINK-37291
国际标识:
2026-070U
轨道中心:
EARTH
卫星名称:
星链-37291
卫星全名:
星链-37291(STARLINK-37291)
卫星状态:
在轨 (已飞行162 天)
发射日期:
2026-04-02 UTC
国别 :
美国 (US)
星等 :
--
轨道信息
数据来源 国际轨道数据 AOE轨道数据
星历时间 2026-09-10T22:58:40+0800
13小时前
查看轨道信息
2026-09-09T22:00:00+0800
1天前
查看轨道信息
半长轴 6840.823km 6840.871km
偏心率 0.0002545 0.000112
轨道倾角 53.156° 53.157°
近地点辐角 90.748° 64.876°
升交点赤经 219.706° 224.573°
平近点角 269.382° 303.218°
近地点 460.945km 461.967km
远地点 464.427km 463.501km
周期 93.847分钟 93.848分钟
每日圈数 15.344059 15.343898
详细信息
固有亮度:
5
最大亮度:
2.5
卫星平台:
Starlink V1.0
覆盖范围:
全球
运营商:
太空探索技术公司
运营商所在国:
美国
制造商(研发单位):
太空探索技术公司
制造商所在国:
美国
使用方式:
暂无
卫星简介
Starlink 计划是 SpaceX 推出的全球卫星互联网项目,通过发射低轨道卫星,为全球尤其是偏远地区提供高速、低延迟的互联网服务。自 2019 年起,Starlink 已部署数千颗卫星,旨在缩小全球数字鸿沟,推动互联网普及。该项目还为军事、航空等行业提供通信支持,带来广泛经济效益。
2D轨道图
3D轨道图
轨道高度分析图
轨道倾角分析图
轨道综合分析图
查看轨道综合分析图
交会数据列表
事件ID 空间交会对象 最接近时刻(TCA) 交会距离 交会风险概率(CRP) 交会风险指数(CRI) 操作
CDM_260911-223606-856006-925221
2026-09-11T
22:36:19+0000
0.279 km
中距离
2.498197E-4 高风险 0.83
CDM_260913-051306-034106-856021
2026-09-13T
05:13:22+0000
0.780 km
远距离
3.872049E-5 中风险 0.67
CDM_260912-172906-034106-856021
2026-09-12T
17:29:56+0000
1.165 km
极远距离
9.93861E-6 低风险 0.55
CDM_260911-201506-856006-925221
2026-09-11T
20:15:38+0000
1.560 km
极远距离
1.727229E-6 低风险 0.4
CDM_260912-190306-034106-856021
2026-09-12T
19:03:43+0000
2.364 km
极远距离
1.305035E-6 低风险 0.37
CDM_260913-033906-034106-856021
2026-09-13T
03:39:35+0000
2.451 km
极远距离
1.220883E-6 低风险 0.37
CDM_260911-184106-856006-925221
2026-09-11T
18:41:50+0000
2.111 km
极远距离
8.135489E-7 极低风险 0.33
与全量物体交会距离演化趋势
与全量物体交会风险概率演化趋势